Weather History for Brisbane Airport M. O, Queensland

Change the Weather History Date:

Wednesday, August 7, 2013

  Actual Average Record
Temperature  
Mean Temperature 60 °F -  
Max Temperature 73 °F 72 °F - ()
Min Temperature 47 °F 51 °F - ()
Degree Days  
Heating Degree Days 5    
Growing Degree Days 10 (Base 50)    
Moisture  
Dew Point 52 °F    
Average Humidity 70    
Maximum Humidity 94    
Minimum Humidity 38    
Precipitation  
Precipitation 0.00 in 0.06 in - ()
Sea Level Pressure  
Sea Level Pressure 29.94 in    
Wind  
Wind Speed 6 mph ()    
Max Wind Speed 13 mph    
Max Gust Speed -    
Visibility 14.0 miles    
Events      
T = Trace of Precipitation, MM = Missing Value Source: Averaged Metar Reports

Daily Weather History Graph

Daily Weather History Graph

Search for Another Location

Airport:

Trip Planner

Search our weather history database for the weather conditions in past years. The results will help you decide how hot, cold, wet, or windy it might be!

Date:

Astronomy

Aug. 07, 2013 Rise Set
Actual Time 6:24 AM EST 5:22 PM EST
Civil Twilight 6:00 AM EST 5:46 PM EST
Nautical Twilight 5:32 AM EST 6:14 PM EST
Astronomical Twilight 5:04 AM EST 6:41 PM EST
Moon 6:09 AM EST (8/7) 5:43 PM EST (8/7)
Length of Visible Light 11h 46m
Length of Day
10h 57m
New Moon, 0% of the Moon is Illuminated
Aug 7
New Moon
Aug 14
First Quarter
Aug 21
Full
Aug 28
Last Quarter
Sep 5
New

Hourly Weather History & Observations

Time (EST) Temp. Dew Point Humidity Pressure Visibility Wind Dir Wind Speed Gust Speed Precip Events Conditions
12:00 AM 53 °F 47 °F 75% 30.02 in 19 mi WNW 5.8 mph - -   Partly Cloudy
12:00 AM 53.6 °F 48.2 °F 82% 30.01 in - WNW 5.8 mph - N/A   Clear
12:30 AM 51.8 °F 46.4 °F 82% 30.01 in - NNW 3.5 mph - N/A   Clear
1:00 AM 52 °F 46 °F 75% 30.00 in - NNW 2.3 mph - -  
1:00 AM 51.8 °F 46.4 °F 82% 29.98 in - NNW 2.3 mph - N/A   Clear
1:30 AM 53.6 °F 46.4 °F 77% 29.98 in - WNW 4.6 mph - N/A   Clear
2:00 AM 53.6 °F 46.4 °F 77% 29.98 in - West 5.8 mph - N/A   Clear
2:30 AM 53.6 °F 44.6 °F 72% 29.98 in - West 3.5 mph - N/A   Clear
3:00 AM 52 °F 46 °F 72% 29.98 in 19 mi WSW 4.6 mph - -   Partly Cloudy
3:00 AM 51.8 °F 46.4 °F 82% 29.98 in - WSW 4.6 mph - N/A   Clear
3:30 AM 50.0 °F 46.4 °F 87% 29.98 in - SSW 6.9 mph - N/A   Clear
4:00 AM 51 °F 47 °F 80% 29.98 in - SSW 4.6 mph - -  
4:00 AM 51.8 °F 46.4 °F 82% 29.98 in - SSW 4.6 mph - N/A   Clear
4:30 AM 51.8 °F 46.4 °F 82% 29.98 in - South 4.6 mph - N/A   Clear
5:00 AM 51.8 °F 44.6 °F 76% 29.98 in - SSW 5.8 mph - N/A   Clear
5:30 AM 48.2 °F 42.8 °F 82% 29.98 in - North 1.2 mph - N/A   Clear
6:00 AM 50 °F 45 °F 75% 30.00 in 19 mi SSW 6.9 mph - -   Partly Cloudy
6:00 AM 50.0 °F 44.6 °F 82% 29.98 in - SSW 6.9 mph - N/A   Clear
6:30 AM 50.0 °F 44.6 °F 82% 30.01 in - SSW 6.9 mph - N/A   Clear
7:00 AM 51 °F 44 °F 70% 30.02 in - South 5.8 mph - -  
7:00 AM 51.8 °F 44.6 °F 76% 30.01 in 6.2 mi South 5.8 mph - N/A   Partly Cloudy
7:30 AM 53.6 °F 46.4 °F 77% 30.01 in - SSW 8.1 mph - N/A   Clear
8:00 AM 55.4 °F 46.4 °F 72% 30.01 in - South 4.6 mph - N/A   Clear
8:30 AM 59.0 °F 46.4 °F 63% 30.01 in - SSW 3.5 mph - N/A   Clear
9:00 AM 62 °F 49 °F 52% 30.03 in 19 mi SSW 3.5 mph - -   Partly Cloudy
9:00 AM 62.6 °F 48.2 °F 59% 30.01 in - SSW 3.5 mph - N/A   Clear
9:30 AM 64.4 °F 46.4 °F 52% 30.01 in - NNW 5.8 mph - N/A   Clear
10:00 AM 67 °F 47 °F 38% 30.01 in - North 6.9 mph - -  
10:00 AM 68.0 °F 48.2 °F 49% 30.01 in - North 6.9 mph - N/A   Clear
10:30 AM 66.2 °F 50.0 °F 56% 29.98 in - North 8.1 mph - N/A   Clear
11:00 AM 68.0 °F 51.8 °F 56% 29.98 in - NNE 8.1 mph - N/A   Clear
11:30 AM 69.8 °F 53.6 °F 56% 29.95 in - NNE 8.1 mph - N/A   Clear
12:00 PM 70 °F 54 °F 47% 29.95 in 16 mi NE 9.2 mph - -   Smoke
12:00 PM 69.8 °F 53.6 °F 56% 29.95 in - NE 9.2 mph - N/A   Clear
12:30 PM 69.8 °F 50.0 °F 49% 29.92 in 6.2 mi NE 6.9 mph - N/A   Partly Cloudy
1:00 PM 72 °F 53 °F 41% 29.91 in - NNE 10.4 mph - -  
1:00 PM 71.6 °F 53.6 °F 53% 29.89 in 6.2 mi NNE 10.4 mph - N/A   Partly Cloudy
1:30 PM 73.4 °F 55.4 °F 53% 29.89 in - NNE 9.2 mph - N/A   Clear
2:00 PM 71.6 °F 55.4 °F 57% 29.86 in - NE 10.4 mph - N/A   Clear
2:30 PM 69.8 °F 57.2 °F 64% 29.86 in - NNE 10.4 mph - N/A   Clear
3:00 PM 72 °F 55 °F 46% 29.88 in 16 mi NNE 10.4 mph - -   Smoke
3:00 PM 71.6 °F 55.4 °F 57% 29.86 in - NNE 10.4 mph - N/A   Clear
3:30 PM 73.4 °F 53.6 °F 50% 29.86 in - NNE 8.1 mph - N/A   Clear
4:00 PM 72 °F 55 °F 46% 29.87 in - NNE 6.9 mph - -  
4:00 PM 71.6 °F 55.4 °F 57% 29.86 in - NNE 6.9 mph - N/A   Clear
4:30 PM 69.8 °F 59.0 °F 68% 29.86 in - NNE 6.9 mph - N/A   Clear
5:00 PM 66.2 °F 59.0 °F 78% 29.86 in - NNE 6.9 mph - N/A   Clear
5:30 PM 64.4 °F 57.2 °F 77% 29.86 in - North 10.4 mph - N/A   Clear
6:00 PM 65 °F 58 °F 70% 29.88 in 16 mi North 11.5 mph - -   Partly Cloudy
6:00 PM 64.4 °F 57.2 °F 77% 29.86 in - North 11.5 mph - N/A   Clear
6:30 PM 66.2 °F 59.0 °F 78% 29.89 in - North 12.7 mph - N/A   Clear
7:00 PM 66 °F 60 °F 74% 29.90 in - North 9.2 mph - -  
7:00 PM 66.2 °F 59.0 °F 78% 29.89 in - North 9.2 mph - N/A   Clear
7:30 PM 64.4 °F 59.0 °F 83% 29.89 in - North 9.2 mph - N/A   Clear
8:00 PM 64.4 °F 60.8 °F 88% 29.89 in - NNW 8.1 mph - N/A   Clear
8:30 PM 62.6 °F 59.0 °F 88% 29.89 in - NNW 5.8 mph - N/A   Clear
9:00 PM 64 °F 59 °F 79% 29.91 in 19 mi North 3.5 mph - -   Partly Cloudy
9:00 PM 64.4 °F 59.0 °F 83% 29.89 in - North 3.5 mph - N/A   Clear
9:30 PM 62.6 °F 59.0 °F 88% 29.89 in - NNE 4.6 mph - N/A   Clear
10:00 PM 60 °F 57 °F 87% 29.90 in - North 6.9 mph - -  
10:00 PM 60.8 °F 57.2 °F 88% 29.89 in 6.2 mi North 6.9 mph - N/A   Mostly Cloudy
10:30 PM 59.0 °F 57.2 °F 94% 29.89 in - North 8.1 mph - N/A   Clear
11:00 PM 60.8 °F 57.2 °F 88% 29.89 in - NNW 5.8 mph - N/A   Clear
11:30 PM 59.0 °F 55.4 °F 88% 29.89 in - West 4.6 mph - N/A   Clear